Regional Weather Roundup
Issued by NWS Austin/San Antonio, TX

Home | Current Version | Previous Version | Text Only | Print | Product List | Glossary On
Versions: 1 2 3 4 5 6 7 8 9 10 11 12 13 14 15 16 17 18 19 20 21 22 23 24 25 26 27 28 29 30 31 32 33 34 35 36 37 38 39 40 41 42 43 44 45 46 47 48 49 50
000
ASUS44 KEWX 272011
RWREWX
SOUTH TEXAS REGIONAL WEATHER ROUNDUP
NATIONAL WEATHER SERVICE AUSTIN/SAN ANTONIO TX
300 PM CDT WED MAY 27 2020

NOTE: "FAIR" INDICATED FEW OR NO CLOUDS BELOW 12,000 FEET WITH NO
SIGNIFICANT WEATHER AND/OR OBSTRUCTIONS TO VISIBILITY.

* - THESE STATIONS ARE NOT NWS OR FAA STATIONS...AND ARE NOT SUBJECT
    TO NWS AND FAA QUALITY CONTROL.

TXZ171-172-183>190-272100-
TEXAS HILL COUNTRY AND EDWARDS PLATEAU

CITY           SKY/WX    TMP DP  RH WIND       PRES   REMARKS
JUNCTION       SUNNY     91  55  29 S12       29.85F
*LLANO         MOSUNNY   90  64  43 S3        29.87F HX  91
BURNET         MOSUNNY   88  61  40 S8G17     29.87F
*HORSESHOE BAY PTSUNNY   90  63  40 S6        29.85F HX  90
*LAGO VISTA    MOSUNNY   87  66  49 SW7       29.87S
*KERRVILLE     SUNNY     89  60  37 SW12G20   29.88F
*FREDERICKSBRG SUNNY     87  57  36 SW12      29.88F
*ROCKSPRINGS   SUNNY     88  52  29 S14G24    29.94F
*BOERNE        MOSUNNY   86  63  45 SW9G16    29.89F
HONDO          SUNNY     90  65  43 S14       29.86F HX  92
*UVALDE          N/A     90  65  43 S12G17    29.86F HX  92
DEL RIO        SUNNY     99  58  25 SE16      29.79F HX  98
*LAUGHLIN AFB  SUNNY     95  61  32 SE18      29.80F HX  95
*SPOFFORD      NOT AVBL
*EAGLE PASS    SUNNY     95  61  31 S14G22    29.82F HX  95
CARRIZO SPRGS  SUNNY     91  68  46 S9G21     29.83F HX  95
$$

TXZ173-191>194-202-209-217>225-228-272100-
CENTRAL AND SOUTH CENTRAL TEXAS

CITY           SKY/WX    TMP DP  RH WIND       PRES   REMARKS
GEORGETOWN     PTSUNNY   77  61  57 NE16G26   29.88R
*TAYLOR        CLOUDY    72  60  66 NE17G30   29.88R
AUSTIN/BERGSTM MOSUNNY   91  69  48 SW14G23   29.83F HX  96
AUSTIN/MABRY   MOSUNNY   88  67  49 VRB6      29.84F HX  91
*PFLUGERVILLE  MOSUNNY   90  66  45 SW10G17   29.85S HX  92
SAN MARCOS     MOSUNNY   91  69  48 SW13      29.85F HX  96
NEW BRAUNFELS  SUNNY     91  65  41 SW15G23   29.84F HX  93
*RANDOLPH AFB  SUNNY     90  63  40 SW12G20   29.84F HX  90
*SEGUIN        SUNNY     88  64  44 SW13G23   29.88F HX  90
SAN ANTONIO    MOSUNNY   90  62  39 S9G26     29.85F HX  90
STINSON FIELD  SUNNY     89  66  46 S14G22    29.82F HX  91
*KELLY FIELD   SUNNY     91  64  41 S16       29.83F HX  92
*PLEASANTON    MOSUNNY   92  67  44 S10G18    29.85F HX  95
*KENEDY        SUNNY     90  66  45 S12G20    29.85F HX  92
*LA GRANGE     CLOUDY    89  69  52 W12G17    29.83R HX  93
*GIDDINGS      CLOUDY    87  65  48 SW16      29.86R
*GONZALES      CLOUDY    90  67  45 S10G16    29.83F HX  93
$$

TXZ163>164-176>182-195>201-210>213-226-227-235-272100-
SOUTHEAST TEXAS

CITY           SKY/WX    TMP DP  RH WIND       PRES   REMARKS
COLLEGE STN    TSTM      66  64  93 N21G54    29.96R VSB 1/2
*BRYAN         TSTM      66  66 100 N8        29.95R
*CALDWELL      TSTM      63  63 100 N12G18    29.92R FOG
*CROCKETT      NOT AVBL
*BRENHAM       CLOUDY    85  69  59 SW12      29.83F
HUNTSVILLE     TSTM      75  68  78 N7        29.87S
CONROE         CLOUDY    82  70  66 NE3       29.85F
HOUSTON BUSH   PTSUNNY   88  65  46 S7        29.83F HX  90
HOUSTON HOBBY  MOSUNNY   89  64  43 VRB7      29.83F HX  90
*HOUSTON SW AP PTSUNNY   86  71  60 S8        29.85F HX  92
PEARLAND       MOSUNNY   89  63  41 S6        29.86F HX  90
HOUSTON HOOKS  MOSUNNY   86  64  47 VRB6      29.83F
ELLINGTON FLD  NOT AVBL
SUGAR LAND     MOSUNNY   89  69  51 SW9       29.84F HX  93
*HOUSTON EXEC  MOSUNNY   86  68  54 S13       29.85F
*CLEVELAND MUN PTSUNNY   81  67  62 CALM      29.85F
*WHARTON       MOSUNNY   88  67  50 S10       29.86F HX  91
*COLUMBUS      FAIR      87  69  54 S12       29.85S HX  91
*EAGLE LAKE    CLOUDY    89  71  56 S12G17    29.84S HX  95
$$

TXZ214>216-236>238-272100-
THE UPPER TEXAS COAST

CITY           SKY/WX    TMP DP  RH WIND       PRES   REMARKS
*ORANGE        SUNNY     89  60  37 SW5       29.87F
PORT ARTHUR    SUNNY     87  63  44 SW6       29.85F
GALVESTON      MOSUNNY   85  73  67 S20       29.87F HX  91
ANGLETON       PTSUNNY   86  70  58 S16       29.86F HX  90
*BAY CITY      MOSUNNY   88  73  61 S17G23    29.86F HX  96
PALACIOS       SUNNY     86  72  62 S15G23    29.87F HX  92
$$

TXZ229>234-239>247-272100-
TEXAS COASTAL BEND AND RIO GRANDE PLAINS

CITY           SKY/WX    TMP DP  RH WIND       PRES   REMARKS
VICTORIA       MOSUNNY   89  70  53 S20G25    29.85F HX  94
*BEEVILLE      MOSUNNY   90  74  60 S9G18     29.85F HX  99
ROCKPORT       SUNNY     87  71  58 S14G22    29.87F HX  93
*PORT ARANSAS  SUNNY     85  72  65 S15G21    29.90F HX  90
*PORT LAVACA   MOSUNNY   89  74  60 S15G21    29.88F HX  98
*INGLESIDE     SUNNY     86  74  67 S14G21    29.88F HX  94
CORPUS CHRISTI MOSUNNY   86  73  65 S16G23    29.87F HX  93
CORPUS NAS     MOSUNNY   87  75  67 S20       29.88F HX  96
*ROBSTOWN      SUNNY     90  71  53 S13G18    29.87F HX  97
ALICE          MOSUNNY   92  70  48 S14G20    29.85F HX  97
KINGSVILLE NAS MOSUNNY   92  69  47 S14G22    29.85F HX  97
COTULLA        MOSUNNY   93  70  46 S9G17     29.84F HX  99
LAREDO         SUNNY     90  70  51 S17       29.85F HX  95
$$

TXZ248>255-272100-
DEEP SOUTH TEXAS

CITY           SKY/WX    TMP DP  RH WIND       PRES   REMARKS
BROWNSVILLE    SUNNY     92  67  43 S10G20    29.87F HX  95
PORT ISABEL    SUNNY     91  68  46 SE14      29.87F HX  95
HARLINGEN      SUNNY     93  70  46 S10       29.86F HX  99
*HEBBRONVILLE  PTSUNNY   88  65  45 S13       29.88F HX  90
MCALLEN        MOSUNNY   92  69  47 S15G23    29.87F HX  97
*WESLACO       MOSUNNY   92  68  45 S12G17    29.86F HX  95
FALFURRIAS     NOT AVBL
EDINBURG       MOSUNNY   91  67  45 SE14G21   29.87F HX  93
*ZAPATA        NOT AVBL
$$

TXZ213>215-236>238-242>244-246-247-251-254-255-272100-
CMAN STATIONS

STATION/POSITION TIME  TEMP    WIND        PRES    WAVE
                       AIR SEA DIR/SP/G            HT/PER
                 (UTC) (F)     (DEG/KT/KT) (MB)    (FT/S)
SABINE PASS      1924   83 83  200/ 11/ 14 1013.4
NORTH JETTY/GLS  1924   80 82  200/ 16/ 18 1010.8
EAGLE POINT      1930   82 81  180/ 16/ 18 1010.6
MORGANS POINT    1930   84 83  130/ 10/ 12 1010.8
PORT O`CONNOR    1930   80 84  180/ 14/ 17 1011.9
PORT ARANSAS     2000   80 83  160/ 15/ 16 1011.9
MALAQUITE BEACH  1930   81 90  140/ 15/ 19 1011.8
BAFFIN BAY       1930   82 88  120/ 15/ 17 1012.3
PORT ISABEL      1930   85 81  150/ 11/ 15 1014.1
$$




USA.gov is the U.S. government's official web portal to all federal, state and local government web resources and services.